Sparta, TN

3:05 PM CST on December 15, 2019 (GMT -0600)
Upper Cumberland Regional

Weather History for KSRB - October, 2019

Change the Weather History Date:

Saturday, October 19, 2019

  Actual Average (WUND) Record (WUND)
Temperature  
Mean Temperature 52 °F -  
Max Temperature 64 °F - - (-1)
Min Temperature 39 °F - - (-1)
Degree Days  
Heating Degree Days 14    
Growing Degree Days 2 (Base 50)    
Moisture  
Dew Point 48 °F    
Average Humidity 88    
Maximum Humidity 100    
Minimum Humidity 49    
Precipitation  
Precipitation 0.10 in - - ()
Sea Level Pressure  
Sea Level Pressure 29.88 in    
Wind  
Wind Speed 1 mph ()    
Max Wind Speed 10 mph    
Max Gust Speed -    
Visibility 8.9 miles    
Events      
Averages and records for this station are not official NWS values.
T = Trace of Precipitation, MM = Missing Value Source: Averaged Metar Reports

Daily Weather History Graph

Daily Weather History Graph

Search for Another Location

Airport or City:

Astronomy

Oct. 19, 2019 Rise Set
Actual Time 6:52 AM CDT 6:01 PM CDT
Civil Twilight 6:26 AM CDT 6:27 PM CDT
Nautical Twilight 5:56 AM CDT 6:57 PM CDT
Astronomical Twilight 5:26 AM CDT 7:26 PM CDT
Moon 10:17 PM CDT (10/19) 12:16 PM CDT (10/19)
Length of Visible Light 12h 00m
Length of Day
11h 09m
Waning Gibbous, 69% of the Moon is Illuminated
Oct 19
Waning Gibbous
Oct 21
Last Quarter
Oct 27
New
Nov 4
First Quarter
Nov 12
Full

Hourly Weather History & Observations

Time (CDT) Temp. Dew Point Humidity Pressure Visibility Wind Dir Wind Speed Gust Speed Precip Events Conditions
12:15 AM 41.0 °F 39.2 °F 93% 29.93 in 10.0 mi Calm Calm - N/A   Clear
12:35 AM 41.0 °F 39.2 °F 93% 29.93 in 10.0 mi Calm Calm - N/A   Clear
12:55 AM 42.8 °F 41.0 °F 93% 29.94 in 10.0 mi Calm Calm - N/A   Clear
1:15 AM 42.8 °F 41.0 °F 93% 29.93 in 10.0 mi Calm Calm - N/A   Clear
1:35 AM 48.2 °F 42.8 °F 82% 29.93 in 10.0 mi SSE 5.8 mph - N/A   Clear
1:55 AM 46.4 °F 42.8 °F 87% 29.94 in 10.0 mi Calm Calm - N/A   Clear
2:15 AM 42.8 °F 41.0 °F 93% 29.93 in 10.0 mi Calm Calm - N/A   Clear
2:35 AM 41.0 °F 39.2 °F 93% 29.92 in 10.0 mi Calm Calm - N/A   Clear
2:55 AM 41.0 °F 39.2 °F 93% 29.92 in 10.0 mi Calm Calm - N/A   Clear
3:15 AM 39.2 °F 39.2 °F 100% 29.92 in 10.0 mi Calm Calm - N/A   Clear
3:35 AM 39.2 °F 37.4 °F 93% 29.91 in 10.0 mi Calm Calm - N/A   Clear
4:15 AM 41.0 °F 39.2 °F 93% 29.91 in 10.0 mi Calm Calm - N/A   Clear
4:35 AM 41.0 °F 39.2 °F 93% 29.92 in 10.0 mi Calm Calm - N/A   Clear
4:55 AM 41.0 °F 41.0 °F 100% 29.92 in 10.0 mi Calm Calm - N/A   Clear
5:15 AM 41.0 °F 39.2 °F 93% 29.92 in 10.0 mi Calm Calm - N/A   Clear
5:35 AM 39.2 °F 39.2 °F 100% 29.92 in 10.0 mi Calm Calm - N/A   Clear
5:55 AM 41.0 °F 39.2 °F 93% 29.92 in 10.0 mi Calm Calm - N/A   Clear
6:15 AM 41.0 °F 39.2 °F 93% 29.92 in 10.0 mi Calm Calm - N/A   Clear
6:35 AM 41.0 °F 39.2 °F 93% 29.92 in 10.0 mi Calm Calm - N/A   Clear
6:55 AM 39.2 °F 37.4 °F 93% 29.92 in 10.0 mi Calm Calm - N/A   Clear
7:15 AM 39.2 °F 39.2 °F 100% 29.92 in 10.0 mi Calm Calm - N/A   Clear
7:35 AM 41.0 °F 41.0 °F 100% 29.92 in 10.0 mi Calm Calm - N/A   Clear
7:55 AM 44.6 °F 42.8 °F 93% 29.93 in 10.0 mi Calm Calm - N/A   Clear
8:15 AM 46.4 °F 44.6 °F 93% 29.93 in 10.0 mi Calm Calm - N/A   Clear
8:35 AM 48.2 °F 46.4 °F 93% 29.93 in 4.0 mi Calm Calm - N/A   Clear
8:55 AM 51.8 °F 48.2 °F 88% 29.94 in 10.0 mi Calm Calm - N/A   Clear
9:15 AM 55.4 °F 46.4 °F 72% 29.94 in 10.0 mi Calm Calm - N/A   Clear
9:35 AM 60.8 °F 46.4 °F 59% 29.94 in 10.0 mi South 6.9 mph - N/A   Clear
9:55 AM 60.8 °F 46.4 °F 59% 29.94 in 10.0 mi South 6.9 mph - N/A   Partly Cloudy
10:15 AM 62.6 °F 44.6 °F 52% 29.94 in 10.0 mi SSE 5.8 mph - N/A   Mostly Cloudy
10:35 AM 62.6 °F 44.6 °F 52% 29.93 in 10.0 mi South 6.9 mph - N/A   Overcast
11:15 AM 64.4 °F 44.6 °F 49% 29.93 in 10.0 mi SSE 5.8 mph - N/A   Overcast
11:35 AM 64.4 °F 44.6 °F 49% 29.93 in 10.0 mi SSE 10.4 mph - N/A   Overcast
11:55 AM 64.4 °F 44.6 °F 49% 29.92 in 10.0 mi SSE 9.2 mph - N/A   Overcast
12:15 PM 64.4 °F 46.4 °F 52% 29.91 in 10.0 mi SE 6.9 mph - N/A   Overcast
12:35 PM 62.6 °F 48.2 °F 59% 29.91 in 10.0 mi South 8.1 mph - N/A   Overcast
12:55 PM 60.8 °F 50.0 °F 68% 29.90 in 10.0 mi South 10.4 mph - N/A   Overcast
1:15 PM 59.0 °F 53.6 °F 82% 29.90 in 2.5 mi South 6.9 mph - N/A   Haze
1:35 PM 57.2 °F 55.4 °F 94% 29.89 in 2.5 mi South 3.5 mph - N/A   Mostly Cloudy
1:55 PM 57.2 °F 55.4 °F 94% 29.88 in 2.0 mi Calm Calm - N/A   Mostly Cloudy
2:15 PM 57.2 °F 55.4 °F 94% 29.88 in 1.5 mi Calm Calm - N/A   Mostly Cloudy
2:35 PM 57.2 °F 55.4 °F 94% 29.87 in 6.0 mi Calm Calm - N/A   Mostly Cloudy
2:55 PM 57.2 °F 55.4 °F 94% 29.86 in 9.0 mi Calm Calm - 0.02 in   Overcast
3:15 PM 57.2 °F 55.4 °F 94% 29.85 in 7.0 mi Calm Calm - N/A   Overcast
3:35 PM 59.0 °F 55.4 °F 88% 29.84 in 10.0 mi Calm Calm - N/A   Overcast
3:55 PM 59.0 °F 55.4 °F 88% 29.84 in 10.0 mi NE 4.6 mph - N/A   Mostly Cloudy
4:15 PM 59.0 °F 55.4 °F 88% 29.83 in 10.0 mi Calm Calm - N/A   Overcast
4:35 PM 59.0 °F 57.2 °F 94% 29.84 in 10.0 mi Calm Calm - N/A   Overcast
4:55 PM 59.0 °F 57.2 °F 94% 29.83 in 9.0 mi Calm Calm - 0.01 in   Overcast
5:15 PM 59.0 °F 57.2 °F 94% 29.83 in 9.0 mi ENE 4.6 mph - N/A   Overcast
5:35 PM 59.0 °F 55.4 °F 88% 29.83 in 8.0 mi East 4.6 mph - N/A   Overcast
5:55 PM 57.2 °F 55.4 °F 94% 29.83 in 4.0 mi ENE 3.5 mph - N/A   Overcast
6:15 PM 57.2 °F 55.4 °F 94% 29.83 in 6.0 mi Calm Calm - N/A   Overcast
6:35 PM 57.2 °F 55.4 °F 94% 29.83 in 10.0 mi Calm Calm - N/A   Overcast
6:55 PM 57.2 °F 55.4 °F 94% 29.83 in 5.0 mi Calm Calm - 0.03 in   Overcast
7:15 PM 57.2 °F 53.6 °F 88% 29.83 in 7.0 mi ESE 4.6 mph - N/A   Overcast
7:35 PM 57.2 °F 53.6 °F 88% 29.82 in 9.0 mi Calm Calm - N/A   Overcast
7:55 PM 55.4 °F 53.6 °F 94% 29.81 in 6.0 mi SE 4.6 mph - 0.02 in   Overcast
8:15 PM 55.4 °F 53.6 °F 94% 29.82 in 7.0 mi Calm Calm - N/A   Overcast
8:35 PM 55.4 °F 53.6 °F 94% 29.82 in 10.0 mi NW 4.6 mph - N/A   Overcast
8:55 PM 55.4 °F 53.6 °F 94% 29.82 in 10.0 mi Calm Calm - 0.02 in   Overcast
9:15 PM 55.4 °F 53.6 °F 94% 29.82 in 10.0 mi Calm Calm - N/A   Overcast
9:35 PM 55.4 °F 55.4 °F 100% 29.83 in 10.0 mi Calm Calm - N/A   Overcast
9:55 PM 55.4 °F 55.4 °F 100% 29.83 in 10.0 mi Calm Calm - N/A   Overcast
10:15 PM 55.4 °F 55.4 °F 100% 29.83 in 9.0 mi Calm Calm - N/A   Overcast
10:35 PM 55.4 °F 55.4 °F 100% 29.82 in 10.0 mi Calm Calm - N/A   Overcast
10:55 PM 55.4 °F 55.4 °F 100% 29.81 in 10.0 mi Calm Calm - N/A   Overcast
11:15 PM 55.4 °F 55.4 °F 100% 29.81 in 10.0 mi Calm Calm - N/A   Overcast
11:35 PM 55.4 °F 55.4 °F 100% 29.82 in 8.0 mi Calm Calm - N/A   Overcast
11:55 PM 55.4 °F 55.4 °F 100% 29.82 in 10.0 mi Calm Calm - N/A   Overcast